Voltar ao catálogo

FENGYUN 1C DEB

AtivoSSO
NORAD 31229·DEBRIS·🇨🇳 China

Lançado May 10, 1999 de Taiyuan Satellite Launch Center

Loading…

Próximas Passagens (próximas 24 horas)

TLE

AtualizadoSource: Space-Track

Época: Sep 13, 2026, 10:49 UTC

1 31229U 99025BLK 26256.45123628  .00001776  00000-0  79231-3 0  9990
2 31229  98.8555 338.2902 0052257 225.9924 133.6941 14.23343634999906

Acompanhe FENGYUN 1C DEB em tempo real com AllMySat

Download on the App Store